User: anonymous   Login
Location: Street
(51.1247°N, 2.7429°W)
Time: 23:53:51
(UTC+00:00)
Language:

Vanguard 2 Rocket - Orbit

View from above orbital plane
View from above orbital plane
View from above satellite
View from above satellite

Ground track
Ground track

The orbit data is extracted from the following two-line orbital elements,

1    12U 59001B   20340.45352360  .00000392  00000-0  20874-3 0  9993
2    12  32.9102 112.6684 1667099 254.9894  86.0888 11.44367427542142
Epoch (UTC): 05 December 2020 10:53:04
Eccentricity: 0.1667099
inclination: 32.9102°
perigee height: 553 km
apogee height: 3326 km
right ascension of ascending node: 112.6684°
argument of perigee: 254.9894°
revolutions per day: 11.44367427
mean anomaly at epoch: 86.0888°
orbit number at epoch: 54214

The dashed part of the orbit path shows where the satellite is in the earth's shadow,  

DLR